CZ-6A DEB

Satellite information

Favourite Embed

Satellite Type and Status

DEBRISIN ORBIT

Key statistics

Satellite CZ-6A DEB at a glance.

Uptime

911

Days in orbit

Revolutions

≈ 14.8

Per day

Orbit

SSO

Sun Synchronous Orbit

Inclination

98.7

Latest

Satellite identification and parameters

Extended collection of information and parameters for CZ-6A DEB.

Object identification

Identified? True

Debris? True

Object name: CZ-6A DEB

International designator: 2022-151CC

Object number (NORAD): 54333

Object ID (CCSDS): 54333

Country: PEOPLES REPUBLIC OF CHINA (PRC)

Current information (Y/N): Y

RCS size: SMALL

Orbital parameters

Period: 97.165 minutes

Inclination: 98.6528 deg

SMA: 7001.102 km

Apoapsis: 670.359 km

Periapsis: 575.575 km

RAAN: 184.88 deg

Eccentricy: 0.0067692

Argument of periapsis: 48.8605 deg

Mean anomaly: 311.842 deg

Mean motion: 14.82016921 rev/day

Mean motion (dot): 0.00029952 rev/day2

B* drag term: 0.00362 1/REarth

Two-line elements (TLE)

Creation date: May 10, 2025, 2:32 a.m.

Reference frame: TEME

Reference center: EARTH

Epoch: May 9, 2025, 4:43 p.m. UTC

TLE line 0: 0 CZ-6A DEB

TLE line 1: 1 54333U 22151CC 25129.69711100 .00029952 00000-0 36200-2 0 9993

TLE line 2: 2 54333 98.6528 184.8800 0067692 48.8605 311.8420 14.82016921131679

Live tracking on map

Real-time ground track for satellite CZ-6A DEB.

In-orbit conjunctions

A list of the most updated potential collisions computed for object CZ-6A DEB.

Target Orbit TCA Probability of collision Miss distance Type
CZ-6A DEB SSO 2024-11-12 10:36:41 0.0001127788 766.0 (m) DEBRIS
COSMOS 2251 DEB LEO 2024-09-27 15:15:36 0.0004273072 387.0 (m) DEBRIS

Associated space launch

Chinese satellite reported for atmospheric/ocean/environmental/spatial parameter research purposes, details TBD.

CZ-6A DEB was lifted into orbit during the mission ‘Long March 6A | Yunhai 3’, on board a Long March 6A space rocket.

The launch took place on Nov. 11, 2022, 10:52 p.m. from Launch Complex 9A.

For more information about the launch, click the button.

Launch to space Long March 6A | Yunhai 3
Long March 6A | Yunhai 3

Agency: N/A

Status: Launch Successful

Launch date: Nov. 11, 2022, 10:52 p.m. UTC

Rocket: Long March 6A

Launch pad: Launch Complex 9A

Location: Taiyuan Satellite Launch Center, People's Republic of China

...

Latest news about this satellite

There are no fresh news available about this satellite. Check back as we update our databases every day.


Newsletter sign-up

Weekly statistics, charts and insights to help you stay on top of the space industry.